map of TEE home
TEE - Airport
Location
City:  Tbessa, Tébessa, Algeria
Name:Cheikh Larbi Tébessi
ICAO:DABS
IATA:TEE

Details
Type:Airport (Aerodrome, Airfield)
Latitude:35°25'57"N (35.432500)
Longitude:8°07'32"E (8.125556)
Elevation:2661 ft (811 m)
Variation:1.89°E (WMM2015 magnetic declination)
0.10° annual change
Runways:2
Longest:9843 × 148 ft (3000 × 45 m)

Time
Time Zone:UTC+1
Local Time:

Weather
METAR:DABS 200300Z 04002KT 9999 FEW040 04/00 Q1023
TAF:DABS 192300Z 2000/2024 12008KT 9999 FEW040 SCT230 PROB30
TEMPO 2000/2009 2000 BR SCT010 PROB30
TEMPO 2003/2007 0400 FG BKN006
BECMG 2012/2015 35010KT

Related Locations
Nearby:
Farthest:GIS: 11838 mi / 19052 km
Gisborne, GIS, NZ

Find:

   beyond  
but within

Other Information
Maps:
NOTAMs:
Links:
Sources:

  
flag of Algeria   

Sectional Chart

Flight Planning
at skyvector.com

Satellite Image

Google Maps Satellite view

 

Copyright © 2004-2017 Karl L. Swartz. All rights reserved.
The Great Circle Mapper name and logo are trademarks of the Great Circle Mapper.
All other trademarks mentioned herein belong to their respective owners.
Please see credits for attibutions and further copyright information.

  Follow gcmap on Facebook Follow gcmap on Twitter Follow gcmap on Google+ GCmap on LinkedIn

hCard Microformat

Geo Microformat